Time,TemperatureF,DewpointF,PressureIn,WindDirection,WindDirectionDegrees,WindSpeedMPH,WindSpeedGustMPH,Humidity,HourlyPrecipIn,Conditions,Clouds,dailyrainin,SoftwareType,DateUTC
2013-04-05 00:01:00,38.8,32.9,30.11,North,0,0.0,0.0,79,0.00,CLR,,0.00,WeatherDisplay:10.37,2013-04-05 05:01:00,
2013-04-05 00:06:00,38.7,32.7,30.11,North,0,0.0,0.0,79,0.00,CLR,,0.00,WeatherDisplay:10.37,2013-04-05 05:06:00,
2013-04-05 00:12:00,38.7,33.0,30.12,North,0,0.0,0.0,80,0.00,CLR,,0.00,WeatherDisplay:10.37,2013-04-05 05:12:00,
2013-04-05 00:17:00,38.5,32.8,30.12,North,0,0.0,0.0,80,0.00,CLR,,0.00,WeatherDisplay:10.37,2013-04-05 05:17:00,
2013-04-05 00:22:00,38.3,32.7,30.12,North,0,0.0,0.0,80,0.00,CLR,,0.00,WeatherDisplay:10.37,2013-04-05 05:22:00,
2013-04-05 00:27:00,38.1,32.5,30.13,North,0,0.0,0.0,80,0.00,CLR,,0.00,WeatherDisplay:10.37,2013-04-05 05:27:00,
2013-04-05 00:32:00,37.8,32.1,30.13,North,0,0.0,0.0,80,0.00,CLR,,0.00,WeatherDisplay:10.37,2013-04-05 05:32:00,
2013-04-05 00:37:00,37.8,32.1,30.13,North,0,0.0,0.0,80,0.00,CLR,,0.00,WeatherDisplay:10.37,2013-04-05 05:37:00,
2013-04-05 00:42:00,37.6,32.3,30.13,NNE,22,1.1,1.1,81,0.00,CLR,,0.00,WeatherDisplay:10.37,2013-04-05 05:42:00,
2013-04-05 00:47:00,37.6,32.3,30.13,NNE,22,1.1,1.1,81,0.00,CLR,,0.00,WeatherDisplay:10.37,2013-04-05 05:47:00,
2013-04-05 00:52:00,37.4,32.1,30.13,NNE,22,0.0,0.0,81,0.00,CLR,,0.00,WeatherDisplay:10.37,2013-04-05 05:52:00,
2013-04-05 00:57:00,37.0,31.8,30.12,NNE,22,0.0,0.0,81,0.00,CLR,,0.00,WeatherDisplay:10.37,2013-04-05 05:57:00,
2013-04-05 01:02:00,37.0,31.8,30.12,NNE,22,1.1,1.1,81,0.00,CLR,,0.00,WeatherDisplay:10.37,2013-04-05 06:02:00,
2013-04-05 01:07:00,36.7,31.4,30.12,NNE,22,0.0,0.0,81,0.00,CLR,,0.00,WeatherDisplay:10.37,2013-04-05 06:07:00,
2013-04-05 01:12:00,36.5,31.5,30.12,NNE,22,0.0,0.0,82,0.00,CLR,,0.00,WeatherDisplay:10.37,2013-04-05 06:12:00,
2013-04-05 01:17:00,36.5,31.5,30.13,NNE,22,1.1,1.1,82,0.00,CLR,,0.00,WeatherDisplay:10.37,2013-04-05 06:17:00,
2013-04-05 01:22:00,36.3,31.4,30.13,NNE,22,1.1,1.2,82,0.00,CLR,,0.00,WeatherDisplay:10.37,2013-04-05 06:22:00,
2013-04-05 01:27:00,36.1,31.2,30.13,NNE,22,4.6,4.6,82,0.00,CLR,,0.00,WeatherDisplay:10.37,2013-04-05 06:27:00,
2013-04-05 01:32:00,36.1,31.2,30.14,NNE,22,2.3,2.3,82,0.00,CLR,,0.00,WeatherDisplay:10.37,2013-04-05 06:32:00,
2013-04-05 01:37:00,36.0,31.0,30.13,NNE,22,2.4,2.6,82,0.00,CLR,,0.00,WeatherDisplay:10.37,2013-04-05 06:37:00,
2013-04-05 01:42:00,36.0,31.0,30.14,NNE,22,4.6,4.6,82,0.00,CLR,,0.00,WeatherDisplay:10.37,2013-04-05 06:42:00,
2013-04-05 01:47:00,36.1,31.2,30.14,NNE,22,6.9,7.2,82,0.00,CLR,,0.00,WeatherDisplay:10.37,2013-04-05 06:47:00,
2013-04-05 01:52:00,36.1,31.2,30.13,NE,45,5.8,6.6,82,0.00,CLR,,0.00,WeatherDisplay:10.37,2013-04-05 06:52:00,
2013-04-05 01:57:00,36.1,31.2,30.13,NNE,22,8.1,8.1,82,0.00,CLR,,0.00,WeatherDisplay:10.37,2013-04-05 06:57:00,
2013-04-05 02:02:00,36.3,31.0,30.14,NNE,22,6.9,7.5,81,0.00,CLR,,0.00,WeatherDisplay:10.37,2013-04-05 07:02:00,
2013-04-05 02:07:00,36.3,31.0,30.14,NNE,22,8.1,8.1,81,0.00,CLR,,0.00,WeatherDisplay:10.37,2013-04-05 07:07:00,
2013-04-05 02:12:00,36.3,30.7,30.14,NNE,22,5.8,5.8,80,0.00,CLR,,0.00,WeatherDisplay:10.37,2013-04-05 07:12:00,
2013-04-05 02:17:00,36.3,30.7,30.14,NNE,22,3.5,3.5,80,0.00,CLR,,0.00,WeatherDisplay:10.37,2013-04-05 07:17:00,
2013-04-05 02:22:00,36.1,30.6,30.14,NNE,22,6.9,7.3,80,0.00,CLR,,0.00,WeatherDisplay:10.37,2013-04-05 07:22:00,
2013-04-05 02:27:00,36.1,30.3,30.14,NNE,22,5.1,5.5,79,0.00,CLR,,0.00,WeatherDisplay:10.37,2013-04-05 07:27:00,
2013-04-05 02:32:00,36.0,30.1,30.14,NNE,22,3.5,3.5,79,0.00,CLR,,0.00,WeatherDisplay:10.37,2013-04-05 07:32:00,
2013-04-05 02:37:00,35.8,29.9,30.14,NNE,22,6.2,6.2,79,0.00,CLR,,0.00,WeatherDisplay:10.37,2013-04-05 07:37:00,
2013-04-05 02:42:00,35.4,29.6,30.14,NNE,22,3.5,0.0,79,0.00,CLR,,0.00,WeatherDisplay:10.37,2013-04-05 07:42:00,
2013-04-05 02:47:00,35.2,29.4,30.14,NNE,22,2.3,2.3,79,0.00,CLR,,0.00,WeatherDisplay:10.37,2013-04-05 07:47:00,
2013-04-05 02:52:00,35.2,29.4,30.14,NNE,22,2.3,2.3,79,0.00,CLR,,0.00,WeatherDisplay:10.37,2013-04-05 07:52:00,
2013-04-05 02:57:00,35.2,29.7,30.14,NNE,22,0.0,0.0,80,0.00,CLR,,0.00,WeatherDisplay:10.37,2013-04-05 07:57:00,
2013-04-05 03:02:00,35.2,29.7,30.14,NNE,22,0.0,0.0,80,0.00,CLR,,0.00,WeatherDisplay:10.37,2013-04-05 08:02:00,
2013-04-05 03:07:00,35.1,29.5,30.14,NNE,22,3.5,3.8,80,0.00,CLR,,0.00,WeatherDisplay:10.37,2013-04-05 08:07:00,
2013-04-05 03:12:00,35.1,29.5,30.14,NNE,22,0.0,0.0,80,0.00,CLR,,0.00,WeatherDisplay:10.37,2013-04-05 08:12:00,
2013-04-05 03:17:00,34.9,29.3,30.14,NNE,22,1.1,1.1,80,0.00,CLR,,0.00,WeatherDisplay:10.37,2013-04-05 08:17:00,
2013-04-05 03:23:00,35.1,29.5,30.15,NNE,22,0.0,0.0,80,0.00,CLR,,0.00,WeatherDisplay:10.37,2013-04-05 08:23:00,
2013-04-05 03:28:00,34.7,29.2,30.15,NNE,22,0.0,0.0,80,0.00,CLR,,0.00,WeatherDisplay:10.37,2013-04-05 08:28:00,
2013-04-05 03:33:00,34.5,29.0,30.14,NNE,22,0.0,0.0,80,0.00,CLR,,0.00,WeatherDisplay:10.37,2013-04-05 08:33:00,
2013-04-05 03:38:00,34.5,29.0,30.14,NNE,22,0.0,0.0,80,0.00,CLR,,0.00,WeatherDisplay:10.37,2013-04-05 08:38:00,
2013-04-05 03:43:00,34.3,28.8,30.14,NNE,22,0.0,0.0,80,0.00,CLR,,0.00,WeatherDisplay:10.37,2013-04-05 08:43:00,
2013-04-05 03:48:00,34.0,28.5,30.14,NNE,22,0.0,0.0,80,0.00,CLR,,0.00,WeatherDisplay:10.37,2013-04-05 08:48:00,
2013-04-05 03:53:00,34.0,28.8,30.15,NNE,22,0.0,0.0,81,0.00,CLR,,0.00,WeatherDisplay:10.37,2013-04-05 08:53:00,
2013-04-05 03:58:00,33.8,28.6,30.15,NNE,22,0.0,0.0,81,0.00,CLR,,0.00,WeatherDisplay:10.37,2013-04-05 08:58:00,
2013-04-05 04:03:00,33.4,28.2,30.15,NNE,22,0.0,0.0,81,0.00,CLR,,0.00,WeatherDisplay:10.37,2013-04-05 09:03:00,
2013-04-05 04:08:00,33.3,28.1,30.15,NNE,22,0.0,0.0,81,0.00,CLR,,0.00,WeatherDisplay:10.37,2013-04-05 09:08:00,
2013-04-05 04:13:00,33.3,28.1,30.15,NNE,22,0.0,0.0,81,0.00,CLR,,0.00,WeatherDisplay:10.37,2013-04-05 09:13:00,
2013-04-05 04:18:00,32.9,27.7,30.15,NNE,22,0.0,0.0,81,0.00,CLR,,0.00,WeatherDisplay:10.37,2013-04-05 09:18:00,
2013-04-05 04:23:00,32.9,27.7,30.15,NNE,22,0.0,0.0,81,0.00,CLR,,0.00,WeatherDisplay:10.37,2013-04-05 09:23:00,
2013-04-05 04:28:00,32.7,27.8,30.15,NNE,22,0.0,0.0,82,0.00,CLR,,0.00,WeatherDisplay:10.37,2013-04-05 09:28:00,
2013-04-05 04:33:00,32.5,27.7,30.15,NNE,22,0.0,0.0,82,0.00,CLR,,0.00,WeatherDisplay:10.37,2013-04-05 09:33:00,
2013-04-05 04:38:00,32.4,27.5,30.15,NNE,22,0.0,0.0,82,0.00,CLR,,0.00,WeatherDisplay:10.37,2013-04-05 09:38:00,
2013-04-05 04:43:00,32.4,27.5,30.15,NNE,22,0.0,0.0,82,0.00,CLR,,0.00,WeatherDisplay:10.37,2013-04-05 09:43:00,
2013-04-05 04:48:00,31.8,27.0,30.15,NNE,22,0.0,0.0,82,0.00,CLR,,0.00,WeatherDisplay:10.37,2013-04-05 09:48:00,
2013-04-05 04:53:00,31.3,26.4,30.16,NNE,22,0.0,0.0,82,0.00,CLR,,0.00,WeatherDisplay:10.37,2013-04-05 09:53:00,
2013-04-05 04:58:00,30.4,25.2,30.15,North,0,0.0,0.0,81,0.00,CLR,,0.00,WeatherDisplay:10.37,2013-04-05 09:58:00,
2013-04-05 05:03:00,30.4,25.2,30.15,North,0,0.0,0.0,81,0.00,CLR,,0.00,WeatherDisplay:10.37,2013-04-05 10:03:00,
2013-04-05 05:08:00,30.0,25.2,30.16,North,0,0.0,0.0,82,0.00,CLR,,0.00,WeatherDisplay:10.37,2013-04-05 10:08:00,
2013-04-05 05:13:00,29.8,25.3,30.16,North,0,0.0,0.0,83,0.00,CLR,,0.00,WeatherDisplay:10.37,2013-04-05 10:13:00,
2013-04-05 05:18:00,29.7,25.4,30.16,North,0,0.0,0.0,84,0.00,CLR,,0.00,WeatherDisplay:10.37,2013-04-05 10:18:00,
2013-04-05 05:24:00,29.7,25.4,30.16,North,0,0.0,0.0,84,0.00,CLR,,0.00,WeatherDisplay:10.37,2013-04-05 10:24:00,
2013-04-05 05:29:00,29.8,25.9,30.15,North,0,0.0,0.0,85,0.00,CLR,,0.00,WeatherDisplay:10.37,2013-04-05 10:29:00,
2013-04-05 05:34:00,29.8,25.9,30.15,North,0,0.0,0.0,85,0.00,CLR,,0.00,WeatherDisplay:10.37,2013-04-05 10:34:00,
2013-04-05 05:39:00,30.0,26.3,30.15,NNE,22,0.0,0.0,86,0.00,CLR,,0.00,WeatherDisplay:10.37,2013-04-05 10:39:00,
2013-04-05 05:44:00,29.8,26.2,30.15,NNE,22,0.0,0.0,86,0.00,CLR,,0.00,WeatherDisplay:10.37,2013-04-05 10:44:00,
2013-04-05 05:49:00,29.7,26.0,30.15,North,0,0.0,0.0,86,0.00,CLR,,0.00,WeatherDisplay:10.37,2013-04-05 10:49:00,
2013-04-05 05:54:00,29.7,26.0,30.15,North,0,0.0,0.0,86,0.00,CLR,,0.00,WeatherDisplay:10.37,2013-04-05 10:54:00,
2013-04-05 05:59:00,29.7,26.0,30.16,North,0,0.0,0.0,86,0.00,CLR,,0.00,WeatherDisplay:10.37,2013-04-05 10:59:00,
2013-04-05 06:04:00,29.3,25.6,30.16,North,0,0.0,0.0,86,0.00,CLR,,0.00,WeatherDisplay:10.37,2013-04-05 11:04:00,
2013-04-05 06:09:00,29.1,25.5,30.16,North,0,0.0,0.0,86,0.00,CLR,,0.00,WeatherDisplay:10.37,2013-04-05 11:09:00,
2013-04-05 06:14:00,29.1,25.5,30.16,North,0,0.0,0.0,86,0.00,CLR,,0.00,WeatherDisplay:10.37,2013-04-05 11:14:00,
2013-04-05 06:19:00,29.1,25.5,30.15,North,0,0.0,0.0,86,0.00,CLR,,0.00,WeatherDisplay:10.37,2013-04-05 11:19:00,
2013-04-05 06:25:00,28.9,25.3,30.15,North,0,0.0,0.0,86,0.00,CLR,,0.00,WeatherDisplay:10.37,2013-04-05 11:25:00,
2013-04-05 06:31:00,28.9,25.3,30.15,North,0,0.0,0.0,86,0.00,CLR,,0.00,WeatherDisplay:10.37,2013-04-05 11:31:00,
2013-04-05 06:36:00,28.8,25.4,30.15,North,0,0.0,0.0,87,0.00,CLR,,0.00,WeatherDisplay:10.37,2013-04-05 11:36:00,
2013-04-05 06:41:00,28.8,25.4,30.15,North,0,0.0,0.0,87,0.00,CLR,,0.00,WeatherDisplay:10.37,2013-04-05 11:41:00,
2013-04-05 06:46:00,28.6,25.2,30.15,North,0,0.0,0.0,87,0.00,CLR,,0.00,WeatherDisplay:10.37,2013-04-05 11:46:00,
2013-04-05 06:51:00,28.6,25.2,30.16,North,0,0.0,0.0,87,0.00,CLR,,0.00,WeatherDisplay:10.37,2013-04-05 11:51:00,
2013-04-05 06:56:00,28.6,25.2,30.16,North,0,0.0,0.0,87,0.00,CLR,,0.00,WeatherDisplay:10.37,2013-04-05 11:56:00,
2013-04-05 07:01:00,28.6,25.5,30.16,North,0,0.0,0.0,88,0.00,CLR,,0.00,WeatherDisplay:10.37,2013-04-05 12:01:00,
2013-04-05 07:06:00,28.8,25.7,30.15,North,0,0.0,0.0,88,0.00,CLR,,0.00,WeatherDisplay:10.37,2013-04-05 12:06:00,
2013-04-05 07:11:00,29.1,26.3,30.16,North,0,0.0,0.0,89,0.00,CLR,,0.00,WeatherDisplay:10.37,2013-04-05 12:11:00,
2013-04-05 07:16:00,29.8,27.0,30.16,North,0,0.0,0.0,89,0.00,CLR,,0.00,WeatherDisplay:10.37,2013-04-05 12:16:00,
2013-04-05 07:21:00,31.8,29.5,30.16,North,0,0.0,0.0,91,0.00,CLR,,0.00,WeatherDisplay:10.37,2013-04-05 12:21:00,
2013-04-05 07:26:00,34.2,32.1,30.16,North,0,0.0,0.0,92,0.00,CLR,,0.00,WeatherDisplay:10.37,2013-04-05 12:26:00,
2013-04-05 07:31:00,34.3,31.7,30.16,North,0,0.0,0.0,90,0.00,CLR,,0.00,WeatherDisplay:10.37,2013-04-05 12:31:00,
2013-04-05 07:36:00,34.0,30.5,30.16,North,0,0.0,0.0,87,0.00,CLR,,0.00,WeatherDisplay:10.37,2013-04-05 12:36:00,
2013-04-05 07:41:00,33.4,29.4,30.15,North,0,0.0,0.0,85,0.00,CLR,,0.00,WeatherDisplay:10.37,2013-04-05 12:41:00,
2013-04-05 07:46:00,33.4,29.1,30.16,North,0,0.0,0.0,84,0.00,CLR,,0.00,WeatherDisplay:10.37,2013-04-05 12:46:00,
2013-04-05 07:51:00,33.8,29.5,30.17,North,0,0.0,0.0,84,0.00,CLR,,0.00,WeatherDisplay:10.37,2013-04-05 12:51:00,
2013-04-05 07:56:00,35.2,31.5,30.17,North,0,0.0,0.0,86,0.00,CLR,,0.00,WeatherDisplay:10.37,2013-04-05 12:56:00,
2013-04-05 08:01:00,37.6,33.8,30.17,North,0,0.0,0.0,86,0.00,CLR,,0.00,WeatherDisplay:10.37,2013-04-05 13:01:00,
2013-04-05 08:06:00,41.4,37.2,30.17,NNE,22,0.0,0.0,85,0.00,CLR,,0.00,WeatherDisplay:10.37,2013-04-05 13:06:00,
2013-04-05 08:12:00,43.0,37.2,30.17,NE,45,0.0,0.0,80,0.00,CLR,,0.00,WeatherDisplay:10.37,2013-04-05 13:12:00,
2013-04-05 08:17:00,43.0,37.2,30.17,NE,45,0.0,0.0,80,0.00,CLR,,0.00,WeatherDisplay:10.37,2013-04-05 13:17:00,
2013-04-05 08:22:00,39.7,32.1,30.16,NE,45,0.0,0.0,74,0.00,CLR,,0.00,WeatherDisplay:10.37,2013-04-05 13:22:00,
2013-04-05 08:27:00,38.1,30.6,30.17,ENE,69,17.5,17.5,74,0.00,CLR,,0.00,WeatherDisplay:10.37,2013-04-05 13:27:00,
2013-04-05 08:32:00,37.0,29.5,30.17,ENE,68,228.9,228.9,74,0.00,CLR,,0.00,WeatherDisplay:10.37,2013-04-05 13:32:00,
2013-04-05 08:37:00,36.9,29.7,30.17,East,90,2.3,2.3,75,0.00,CLR,,0.00,WeatherDisplay:10.37,2013-04-05 13:37:00,
2013-04-05 08:42:00,36.9,30.3,30.17,ENE,68,6.9,6.9,77,0.00,CLR,,0.00,WeatherDisplay:10.37,2013-04-05 13:42:00,
2013-04-05 08:47:00,37.0,31.1,30.16,ENE,68,5.8,6.1,79,0.00,CLR,,0.00,WeatherDisplay:10.37,2013-04-05 13:47:00,
2013-04-05 08:52:00,37.6,31.7,30.16,East,90,5.8,6.1,79,0.00,CLR,,0.00,WeatherDisplay:10.37,2013-04-05 13:52:00,
2013-04-05 08:57:00,37.0,30.8,30.15,East,90,9.2,9.2,78,0.00,CLR,,0.00,WeatherDisplay:10.37,2013-04-05 13:57:00,
2013-04-05 09:02:00,37.0,30.8,30.15,East,90,1.1,1.2,78,0.00,CLR,,0.00,WeatherDisplay:10.37,2013-04-05 14:02:00,
2013-04-05 09:08:00,37.0,30.5,30.15,ESE,112,8.1,8.7,77,0.00,CLR,,0.00,WeatherDisplay:10.37,2013-04-05 14:08:00,
2013-04-05 09:13:00,37.2,30.7,30.16,East,90,6.9,7.8,77,0.00,CLR,,0.00,WeatherDisplay:10.37,2013-04-05 14:13:00,
2013-04-05 09:18:00,37.2,30.3,30.16,East,90,8.1,8.4,76,0.00,CLR,,0.00,WeatherDisplay:10.37,2013-04-05 14:18:00,
2013-04-05 09:23:00,37.6,30.7,30.15,ENE,68,7.6,8.0,76,0.00,CLR,,0.00,WeatherDisplay:10.37,2013-04-05 14:23:00,
2013-04-05 09:28:00,37.6,30.7,30.16,ESE,112,9.2,9.5,76,0.00,CLR,,0.00,WeatherDisplay:10.37,2013-04-05 14:28:00,
2013-04-05 09:34:00,38.8,31.6,30.16,ESE,112,6.9,6.9,75,0.00,CLR,,0.00,WeatherDisplay:10.37,2013-04-05 14:34:00,
2013-04-05 09:39:00,39.9,32.6,30.15,East,90,7.3,7.8,75,0.00,CLR,,0.00,WeatherDisplay:10.37,2013-04-05 14:39:00,
2013-04-05 09:44:00,41.2,33.2,30.15,ESE,112,9.2,9.2,73,0.00,CLR,,0.00,WeatherDisplay:10.37,2013-04-05 14:44:00,
2013-04-05 09:50:00,42.3,33.2,30.15,East,90,8.9,8.9,70,0.00,CLR,,0.00,WeatherDisplay:10.37,2013-04-05 14:50:00,
2013-04-05 09:55:00,42.3,32.4,30.14,ESE,112,13.8,14.0,68,0.00,CLR,,0.00,WeatherDisplay:10.37,2013-04-05 14:55:00,
2013-04-05 10:00:00,42.6,32.4,30.14,ESE,112,9.5,10.1,67,0.00,CLR,,0.00,WeatherDisplay:10.37,2013-04-05 15:00:00,
2013-04-05 10:05:00,43.2,32.9,30.14,ESE,112,10.4,11.0,67,0.00,CLR,,0.00,WeatherDisplay:10.37,2013-04-05 15:05:00,
2013-04-05 10:10:00,44.2,33.2,30.14,SE,135,9.5,9.8,65,0.00,CLR,,0.00,WeatherDisplay:10.37,2013-04-05 15:10:00,
2013-04-05 10:15:00,45.0,33.5,30.14,SE,135,9.5,10.1,64,0.00,CLR,,0.00,WeatherDisplay:10.37,2013-04-05 15:15:00,
2013-04-05 10:21:00,45.9,33.6,30.14,SE,135,9.2,9.3,62,0.00,CLR,,0.00,WeatherDisplay:10.37,2013-04-05 15:21:00,
2013-04-05 10:26:00,46.8,34.4,30.15,SSE,158,6.9,7.2,62,0.00,CLR,,0.00,WeatherDisplay:10.37,2013-04-05 15:26:00,
2013-04-05 10:31:00,47.7,35.3,30.14,SE,135,8.1,8.7,62,0.00,CLR,,0.00,WeatherDisplay:10.37,2013-04-05 15:31:00,
2013-04-05 10:36:00,48.6,34.9,30.14,SE,135,9.2,9.8,59,0.00,CLR,,0.00,WeatherDisplay:10.37,2013-04-05 15:36:00,
2013-04-05 10:41:00,48.7,34.6,30.15,SE,135,7.3,7.3,58,0.00,CLR,,0.00,WeatherDisplay:10.37,2013-04-05 15:41:00,
2013-04-05 10:47:00,49.5,34.8,30.15,SSE,158,8.1,8.1,57,0.00,CLR,,0.00,WeatherDisplay:10.37,2013-04-05 15:47:00,
2013-04-05 10:52:00,49.8,34.7,30.15,SE,135,7.0,7.5,56,0.00,CLR,,0.00,WeatherDisplay:10.37,2013-04-05 15:52:00,
2013-04-05 10:57:00,49.5,34.4,30.14,South,180,10.4,10.4,56,0.00,CLR,,0.00,WeatherDisplay:10.37,2013-04-05 15:57:00,
2013-04-05 11:02:00,50.0,34.9,30.13,South,180,11.9,12.7,56,0.00,CLR,,0.00,WeatherDisplay:10.37,2013-04-05 16:02:00,
2013-04-05 11:07:00,49.5,34.0,30.14,SSE,158,4.6,4.6,55,0.00,CLR,,0.00,WeatherDisplay:10.37,2013-04-05 16:07:00,
2013-04-05 11:12:00,49.3,33.8,30.14,SE,135,6.9,6.9,55,0.00,CLR,,0.00,WeatherDisplay:10.37,2013-04-05 16:12:00,
2013-04-05 11:17:00,50.2,35.1,30.13,SE,135,10.4,10.4,56,0.00,CLR,,0.00,WeatherDisplay:10.37,2013-04-05 16:17:00,
2013-04-05 11:22:00,51.3,35.2,30.13,South,180,9.2,9.2,54,0.00,CLR,,0.00,WeatherDisplay:10.37,2013-04-05 16:22:00,
2013-04-05 11:27:00,52.0,35.4,30.13,South,180,9.7,10.4,53,0.00,CLR,,0.00,WeatherDisplay:10.37,2013-04-05 16:27:00,
2013-04-05 11:32:00,52.2,35.1,30.13,SSE,158,6.9,6.9,52,0.00,CLR,,0.00,WeatherDisplay:10.37,2013-04-05 16:32:00,
2013-04-05 11:37:00,52.3,35.2,30.13,South,180,10.4,10.4,52,0.00,CLR,,0.00,WeatherDisplay:10.37,2013-04-05 16:37:00,
2013-04-05 11:42:00,52.5,34.9,30.12,SSE,158,8.4,9.0,51,0.00,CLR,,0.00,WeatherDisplay:10.37,2013-04-05 16:42:00,
2013-04-05 11:47:00,52.5,33.9,30.13,SE,135,10.4,11.2,49,0.00,CLR,,0.00,WeatherDisplay:10.37,2013-04-05 16:47:00,
2013-04-05 11:52:00,52.7,34.1,30.13,ESE,112,11.9,11.9,49,0.00,CLR,,0.00,WeatherDisplay:10.37,2013-04-05 16:52:00,
2013-04-05 11:57:00,53.1,33.9,30.13,South,180,7.3,7.8,48,0.00,CLR,,0.00,WeatherDisplay:10.37,2013-04-05 16:57:00,
2013-04-05 12:02:00,54.0,34.7,30.12,SE,135,10.4,10.7,48,0.00,CLR,,0.00,WeatherDisplay:10.37,2013-04-05 17:02:00,
2013-04-05 12:07:00,54.3,34.5,30.12,South,180,9.2,9.2,47,0.00,CLR,,0.00,WeatherDisplay:10.37,2013-04-05 17:07:00,
2013-04-05 12:12:00,54.5,33.0,30.11,ESE,112,10.4,11.2,44,0.00,CLR,,0.00,WeatherDisplay:10.37,2013-04-05 17:12:00,
2013-04-05 12:17:00,54.0,32.0,30.11,SE,135,6.9,6.9,43,0.00,CLR,,0.00,WeatherDisplay:10.37,2013-04-05 17:17:00,
2013-04-05 12:22:00,53.4,32.0,30.11,SSE,158,11.5,11.8,44,0.00,CLR,,0.00,WeatherDisplay:10.37,2013-04-05 17:22:00,
2013-04-05 12:27:00,53.2,31.3,30.10,SE,135,9.5,10.1,43,0.00,CLR,,0.00,WeatherDisplay:10.37,2013-04-05 17:27:00,
2013-04-05 12:32:00,53.1,30.6,30.10,SE,135,8.1,8.3,42,0.00,CLR,,0.00,WeatherDisplay:10.37,2013-04-05 17:32:00,
2013-04-05 12:37:00,54.0,32.5,30.10,SE,135,11.5,11.5,44,0.00,CLR,,0.00,WeatherDisplay:10.37,2013-04-05 17:37:00,
2013-04-05 12:43:00,54.1,30.9,30.09,SE,135,10.4,10.7,41,0.00,CLR,,0.00,WeatherDisplay:10.37,2013-04-05 17:43:00,
2013-04-05 12:48:00,54.9,31.6,30.09,SE,135,10.4,10.7,41,0.00,CLR,,0.00,WeatherDisplay:10.37,2013-04-05 17:48:00,
2013-04-05 12:53:00,55.2,31.9,30.09,SE,135,10.4,10.4,41,0.00,CLR,,0.00,WeatherDisplay:10.37,2013-04-05 17:53:00,
2013-04-05 12:58:00,55.4,32.1,30.09,SE,135,9.2,9.5,41,0.00,CLR,,0.00,WeatherDisplay:10.37,2013-04-05 17:58:00,
2013-04-05 13:03:00,55.8,31.8,30.08,ESE,112,10.5,10.5,40,0.00,CLR,,0.00,WeatherDisplay:10.37,2013-04-05 18:03:00,
2013-04-05 13:08:00,55.9,31.9,30.08,SSE,158,11.5,11.5,40,0.00,CLR,,0.00,WeatherDisplay:10.37,2013-04-05 18:08:00,
2013-04-05 13:13:00,55.9,31.9,30.08,SE,135,6.9,7.2,40,0.00,CLR,,0.00,WeatherDisplay:10.37,2013-04-05 18:13:00,
2013-04-05 13:18:00,55.8,31.8,30.07,SE,135,13.8,15.3,40,0.00,CLR,,0.00,WeatherDisplay:10.37,2013-04-05 18:18:00,
2013-04-05 13:23:00,55.2,31.3,30.06,South,180,12.7,12.7,40,0.00,CLR,,0.00,WeatherDisplay:10.37,2013-04-05 18:23:00,
2013-04-05 13:28:00,55.0,31.1,30.06,South,180,15.0,15.6,40,0.00,CLR,,0.00,WeatherDisplay:10.37,2013-04-05 18:28:00,
2013-04-05 13:33:00,55.2,31.3,30.05,SSE,158,11.5,11.9,40,0.00,CLR,,0.00,WeatherDisplay:10.37,2013-04-05 18:33:00,
2013-04-05 13:38:00,54.9,30.3,30.05,SE,135,11.5,11.5,39,0.00,CLR,,0.00,WeatherDisplay:10.37,2013-04-05 18:38:00,
2013-04-05 13:43:00,54.9,31.0,30.05,SSE,158,14.6,14.6,40,0.00,CLR,,0.00,WeatherDisplay:10.37,2013-04-05 18:43:00,
2013-04-05 13:48:00,55.6,32.2,30.05,SSE,158,15.0,15.0,41,0.00,CLR,,0.00,WeatherDisplay:10.37,2013-04-05 18:48:00,
2013-04-05 13:53:00,55.9,31.9,30.05,SE,135,11.5,12.4,40,0.00,CLR,,0.00,WeatherDisplay:10.37,2013-04-05 18:53:00,
2013-04-05 13:58:00,56.7,31.3,30.05,SSE,158,13.8,14.8,38,0.00,CLR,,0.00,WeatherDisplay:10.37,2013-04-05 18:58:00,
2013-04-05 14:03:00,57.2,31.8,30.04,SE,135,11.5,11.5,38,0.00,CLR,,0.00,WeatherDisplay:10.37,2013-04-05 19:03:00,
2013-04-05 14:08:00,57.7,32.3,30.04,SE,135,9.2,9.5,38,0.00,CLR,,0.00,WeatherDisplay:10.37,2013-04-05 19:08:00,
2013-04-05 14:13:00,57.9,31.1,30.04,SE,135,15.1,15.1,36,0.00,CLR,,0.00,WeatherDisplay:10.37,2013-04-05 19:13:00,
2013-04-05 14:18:00,58.1,31.3,30.04,SE,135,10.4,11.0,36,0.00,CLR,,0.00,WeatherDisplay:10.37,2013-04-05 19:18:00,
2013-04-05 14:23:00,57.9,31.1,30.04,SE,135,11.5,12.4,36,0.00,CLR,,0.00,WeatherDisplay:10.37,2013-04-05 19:23:00,
2013-04-05 14:28:00,57.9,31.1,30.04,SSE,158,11.5,11.5,36,0.00,CLR,,0.00,WeatherDisplay:10.37,2013-04-05 19:28:00,
2013-04-05 14:33:00,57.9,31.8,30.03,SSE,158,13.8,13.8,37,0.00,CLR,,0.00,WeatherDisplay:10.37,2013-04-05 19:33:00,
2013-04-05 14:38:00,58.1,31.3,30.02,South,180,13.0,13.0,36,0.00,CLR,,0.00,WeatherDisplay:10.37,2013-04-05 19:38:00,
2013-04-05 14:43:00,58.1,31.9,30.02,SSE,158,16.0,16.0,37,0.00,CLR,,0.00,WeatherDisplay:10.37,2013-04-05 19:43:00,
2013-04-05 14:48:00,58.1,31.3,30.01,SE,135,10.4,10.4,36,0.00,CLR,,0.00,WeatherDisplay:10.37,2013-04-05 19:48:00,
2013-04-05 14:53:00,57.9,31.8,30.01,SE,135,10.4,11.3,37,0.00,CLR,,0.00,WeatherDisplay:10.37,2013-04-05 19:53:00,
2013-04-05 14:58:00,57.9,31.1,30.00,SSE,158,10.5,10.5,36,0.00,CLR,,0.00,WeatherDisplay:10.37,2013-04-05 19:58:00,
2013-04-05 15:03:00,57.9,31.8,30.00,South,180,13.8,14.5,37,0.00,CLR,,0.00,WeatherDisplay:10.37,2013-04-05 20:03:00,
2013-04-05 15:08:00,57.9,31.8,30.00,SE,135,10.0,10.0,37,0.00,CLR,,0.00,WeatherDisplay:10.37,2013-04-05 20:08:00,
2013-04-05 15:13:00,58.1,31.9,30.00,SE,135,12.7,13.5,37,0.00,CLR,,0.00,WeatherDisplay:10.37,2013-04-05 20:13:00,
2013-04-05 15:18:00,58.3,31.4,29.99,SE,135,11.5,11.9,36,0.00,CLR,,0.00,WeatherDisplay:10.37,2013-04-05 20:18:00,
2013-04-05 15:23:00,59.0,32.1,29.99,SE,135,8.1,8.3,36,0.00,CLR,,0.00,WeatherDisplay:10.37,2013-04-05 20:23:00,
2013-04-05 15:29:00,59.4,30.2,29.99,SE,135,11.5,12.7,33,0.00,CLR,,0.00,WeatherDisplay:10.37,2013-04-05 20:29:00,
2013-04-05 15:34:00,59.4,30.2,29.99,South,180,12.7,12.7,33,0.00,CLR,,0.00,WeatherDisplay:10.37,2013-04-05 20:34:00,
2013-04-05 15:39:00,59.7,30.5,29.99,SE,135,14.1,14.2,33,0.00,CLR,,0.00,WeatherDisplay:10.37,2013-04-05 20:39:00,
2013-04-05 15:44:00,59.9,30.7,29.99,SSE,158,15.0,16.0,33,0.00,CLR,,0.00,WeatherDisplay:10.37,2013-04-05 20:44:00,
2013-04-05 15:49:00,60.3,31.0,29.97,SSE,158,13.8,13.8,33,0.00,CLR,,0.00,WeatherDisplay:10.37,2013-04-05 20:49:00,
2013-04-05 15:54:00,60.3,31.0,29.97,South,180,17.3,18.2,33,0.00,CLR,,0.00,WeatherDisplay:10.37,2013-04-05 20:54:00,
2013-04-05 16:00:00,60.4,33.3,29.97,South,180,14.3,14.7,36,0.00,CLR,,0.00,WeatherDisplay:10.37,2013-04-05 21:00:00,
2013-04-05 16:05:00,60.3,31.0,29.97,SE,135,11.5,11.5,33,0.00,CLR,,0.00,WeatherDisplay:10.37,2013-04-05 21:05:00,
2013-04-05 16:10:00,59.9,32.9,29.97,SSE,158,13.8,13.9,36,0.00,CLR,,0.00,WeatherDisplay:10.37,2013-04-05 21:10:00,
2013-04-05 16:15:00,59.9,32.9,29.96,SE,135,9.2,9.8,36,0.00,CLR,,0.00,WeatherDisplay:10.37,2013-04-05 21:15:00,
2013-04-05 16:20:00,59.9,32.9,29.95,SE,135,12.7,12.7,36,0.00,CLR,,0.00,WeatherDisplay:10.37,2013-04-05 21:20:00,
2013-04-05 16:25:00,59.7,33.4,29.94,SE,135,12.4,12.4,37,0.00,CLR,,0.00,WeatherDisplay:10.37,2013-04-05 21:25:00,
2013-04-05 16:30:00,59.5,33.2,29.94,SE,135,9.2,9.2,37,0.00,CLR,,0.00,WeatherDisplay:10.37,2013-04-05 21:30:00,
2013-04-05 16:36:00,59.5,33.9,29.94,SSE,158,18.7,19.8,38,0.00,CLR,,0.00,WeatherDisplay:10.37,2013-04-05 21:36:00,
2013-04-05 16:41:00,59.7,34.0,29.93,SE,135,10.4,11.3,38,0.00,CLR,,0.00,WeatherDisplay:10.37,2013-04-05 21:41:00,
2013-04-05 16:46:00,59.9,33.5,29.93,SSE,158,13.8,14.7,37,0.00,CLR,,0.00,WeatherDisplay:10.37,2013-04-05 21:46:00,
2013-04-05 16:51:00,60.1,33.7,29.92,SE,135,15.1,16.2,37,0.00,CLR,,0.00,WeatherDisplay:10.37,2013-04-05 21:51:00,
2013-04-05 16:56:00,60.3,33.9,29.92,SE,135,15.1,16.2,37,0.00,CLR,,0.00,WeatherDisplay:10.37,2013-04-05 21:56:00,
2013-04-05 17:01:00,60.3,33.9,29.91,SE,135,13.0,13.4,37,0.00,CLR,,0.00,WeatherDisplay:10.37,2013-04-05 22:01:00,
2013-04-05 17:06:00,59.9,33.5,29.91,SE,135,17.3,18.2,37,0.00,CLR,,0.00,WeatherDisplay:10.37,2013-04-05 22:06:00,
2013-04-05 17:11:00,60.1,33.7,29.91,SSE,158,17.3,18.2,37,0.00,CLR,,0.00,WeatherDisplay:10.37,2013-04-05 22:11:00,
2013-04-05 17:16:00,60.1,34.4,29.91,SE,135,13.0,13.4,38,0.00,CLR,,0.00,WeatherDisplay:10.37,2013-04-05 22:16:00,
2013-04-05 17:22:00,60.4,34.7,29.90,SE,135,15.0,15.0,38,0.00,CLR,,0.00,WeatherDisplay:10.37,2013-04-05 22:22:00,
2013-04-05 17:27:00,60.4,34.7,29.90,SSE,158,13.8,14.7,38,0.00,CLR,,0.00,WeatherDisplay:10.37,2013-04-05 22:27:00,
2013-04-05 17:32:00,60.6,34.9,29.90,SSE,158,11.5,11.7,38,0.00,CLR,,0.00,WeatherDisplay:10.37,2013-04-05 22:32:00,
2013-04-05 17:37:00,61.0,35.8,29.90,SE,135,17.6,18.8,39,0.00,CLR,,0.00,WeatherDisplay:10.37,2013-04-05 22:37:00,
2013-04-05 17:42:00,61.0,35.2,29.90,SE,135,11.9,11.9,38,0.00,CLR,,0.00,WeatherDisplay:10.37,2013-04-05 22:42:00,
2013-04-05 17:47:00,60.8,35.0,29.89,SSE,158,16.1,16.2,38,0.00,CLR,,0.00,WeatherDisplay:10.37,2013-04-05 22:47:00,
2013-04-05 17:52:00,60.6,34.9,29.89,SE,135,17.3,18.5,38,0.00,CLR,,0.00,WeatherDisplay:10.37,2013-04-05 22:52:00,
2013-04-05 17:57:00,60.4,34.7,29.89,SSE,158,13.8,13.8,38,0.00,CLR,,0.00,WeatherDisplay:10.37,2013-04-05 22:57:00,
2013-04-05 18:02:00,60.4,34.7,29.88,SSE,158,6.2,6.7,38,0.00,CLR,,0.00,WeatherDisplay:10.37,2013-04-05 23:02:00,
2013-04-05 18:07:00,60.4,36.0,29.88,SE,135,9.2,10.1,40,0.00,CLR,,0.00,WeatherDisplay:10.37,2013-04-05 23:07:00,
2013-04-05 18:12:00,60.3,36.4,29.88,South,180,15.1,15.9,41,0.00,CLR,,0.00,WeatherDisplay:10.37,2013-04-05 23:12:00,
2013-04-05 18:17:00,60.1,36.3,29.88,SSE,158,12.7,12.7,41,0.00,CLR,,0.00,WeatherDisplay:10.37,2013-04-05 23:17:00,
2013-04-05 18:22:00,59.9,36.7,29.89,SSE,158,13.0,13.9,42,0.00,CLR,,0.00,WeatherDisplay:10.37,2013-04-05 23:22:00,
2013-04-05 18:27:00,59.9,36.7,29.88,SE,135,13.8,13.8,42,0.00,CLR,,0.00,WeatherDisplay:10.37,2013-04-05 23:27:00,
2013-04-05 18:32:00,59.7,36.6,29.88,ESE,112,13.8,13.8,42,0.00,CLR,,0.00,WeatherDisplay:10.37,2013-04-05 23:32:00,
2013-04-05 18:37:00,59.7,37.2,29.87,SE,135,11.1,11.1,43,0.00,CLR,,0.00,WeatherDisplay:10.37,2013-04-05 23:37:00,
2013-04-05 18:42:00,59.4,36.8,29.87,SE,135,14.1,15.0,43,0.00,CLR,,0.00,WeatherDisplay:10.37,2013-04-05 23:42:00,
2013-04-05 18:47:00,59.4,37.4,29.87,SSE,158,13.8,13.8,44,0.00,CLR,,0.00,WeatherDisplay:10.37,2013-04-05 23:47:00,
2013-04-05 18:52:00,59.2,37.3,29.87,SE,135,10.0,10.3,44,0.00,CLR,,0.00,WeatherDisplay:10.37,2013-04-05 23:52:00,
2013-04-05 18:57:00,59.0,37.1,29.86,SE,135,9.5,10.1,44,0.00,CLR,,0.00,WeatherDisplay:10.37,2013-04-05 23:57:00,
2013-04-05 19:02:00,58.6,37.3,29.87,SE,135,10.4,11.0,45,0.00,CLR,,0.00,WeatherDisplay:10.37,2013-04-06 00:02:00,
2013-04-05 19:07:00,58.5,37.2,29.87,SE,135,9.2,9.2,45,0.00,CLR,,0.00,WeatherDisplay:10.37,2013-04-06 00:07:00,
2013-04-05 19:13:00,58.1,36.9,29.87,SE,135,9.7,10.4,45,0.00,CLR,,0.00,WeatherDisplay:10.37,2013-04-06 00:13:00,
2013-04-05 19:18:00,57.9,36.7,29.86,SE,135,10.4,11.2,45,0.00,CLR,,0.00,WeatherDisplay:10.37,2013-04-06 00:18:00,
2013-04-05 19:23:00,57.7,37.6,29.86,SE,135,9.2,9.7,47,0.00,CLR,,0.00,WeatherDisplay:10.37,2013-04-06 00:23:00,
2013-04-05 19:28:00,57.6,37.5,29.85,SE,135,9.2,10.1,47,0.00,CLR,,0.00,WeatherDisplay:10.37,2013-04-06 00:28:00,
2013-04-05 19:33:00,57.4,37.8,29.85,SE,135,9.7,9.7,48,0.00,CLR,,0.00,WeatherDisplay:10.37,2013-04-06 00:33:00,
2013-04-05 19:38:00,57.2,37.7,29.85,SE,135,10.4,11.0,48,0.00,CLR,,0.00,WeatherDisplay:10.37,2013-04-06 00:38:00,
2013-04-05 19:43:00,57.0,38.0,29.85,SE,135,8.1,8.7,49,0.00,CLR,,0.00,WeatherDisplay:10.37,2013-04-06 00:43:00,
2013-04-05 19:48:00,56.7,37.7,29.84,ESE,112,9.2,9.7,49,0.00,CLR,,0.00,WeatherDisplay:10.37,2013-04-06 00:48:00,
2013-04-05 19:53:00,56.7,37.7,29.84,SE,135,10.4,10.4,49,0.00,CLR,,0.00,WeatherDisplay:10.37,2013-04-06 00:53:00,
2013-04-05 19:58:00,56.5,38.1,29.84,SE,135,4.6,4.6,50,0.00,CLR,,0.00,WeatherDisplay:10.37,2013-04-06 00:58:00,
2013-04-05 20:03:00,56.3,37.9,29.84,SE,135,8.1,8.1,50,0.00,CLR,,0.00,WeatherDisplay:10.37,2013-04-06 01:03:00,
2013-04-05 20:08:00,56.1,37.7,29.84,SE,135,8.1,8.4,50,0.00,CLR,,0.00,WeatherDisplay:10.37,2013-04-06 01:08:00,
2013-04-05 20:13:00,55.9,38.6,29.84,SE,135,9.2,9.8,52,0.00,CLR,,0.00,WeatherDisplay:10.37,2013-04-06 01:13:00,
2013-04-05 20:18:00,55.8,38.4,29.84,SE,135,8.1,8.1,52,0.00,CLR,,0.00,WeatherDisplay:10.37,2013-04-06 01:18:00,
2013-04-05 20:23:00,55.6,38.2,29.84,SSE,158,8.1,8.1,52,0.00,CLR,,0.00,WeatherDisplay:10.37,2013-04-06 01:23:00,
2013-04-05 20:28:00,55.2,38.4,29.84,SE,135,8.1,8.1,53,0.00,CLR,,0.00,WeatherDisplay:10.37,2013-04-06 01:28:00,
2013-04-05 20:33:00,55.2,38.4,29.84,SE,135,10.4,10.4,53,0.00,CLR,,0.00,WeatherDisplay:10.37,2013-04-06 01:33:00,
2013-04-05 20:38:00,55.2,38.9,29.84,SE,135,10.4,10.4,54,0.00,CLR,,0.00,WeatherDisplay:10.37,2013-04-06 01:38:00,
2013-04-05 20:43:00,55.0,38.7,29.84,ESE,112,9.2,9.7,54,0.00,CLR,,0.00,WeatherDisplay:10.37,2013-04-06 01:43:00,
2013-04-05 20:48:00,55.0,39.2,29.84,SSE,158,8.1,8.1,55,0.00,CLR,,0.00,WeatherDisplay:10.37,2013-04-06 01:48:00,
2013-04-05 20:53:00,55.0,39.2,29.84,SE,135,8.1,8.1,55,0.00,CLR,,0.00,WeatherDisplay:10.37,2013-04-06 01:53:00,
2013-04-05 20:58:00,54.9,39.5,29.83,SE,135,10.0,10.0,56,0.00,CLR,,0.00,WeatherDisplay:10.37,2013-04-06 01:58:00,
2013-04-05 21:03:00,54.7,39.3,29.83,SE,135,9.2,9.2,56,0.00,CLR,,0.00,WeatherDisplay:10.37,2013-04-06 02:03:00,
2013-04-05 21:08:00,54.5,39.6,29.83,SE,135,8.1,8.1,57,0.00,CLR,,0.00,WeatherDisplay:10.37,2013-04-06 02:08:00,
2013-04-05 21:13:00,54.5,39.6,29.83,SE,135,9.7,9.7,57,0.00,CLR,,0.00,WeatherDisplay:10.37,2013-04-06 02:13:00,
2013-04-05 21:18:00,54.5,39.6,29.83,SE,135,9.2,9.5,57,0.00,CLR,,0.00,WeatherDisplay:10.37,2013-04-06 02:18:00,
2013-04-05 21:23:00,54.3,39.4,29.83,ESE,112,10.4,11.0,57,0.00,CLR,,0.00,WeatherDisplay:10.37,2013-04-06 02:23:00,
2013-04-05 21:28:00,54.3,39.4,29.83,ESE,112,12.4,12.4,57,0.00,CLR,,0.00,WeatherDisplay:10.37,2013-04-06 02:28:00,
2013-04-05 21:33:00,54.1,39.2,29.83,SE,135,8.1,8.1,57,0.00,CLR,,0.00,WeatherDisplay:10.37,2013-04-06 02:33:00,
2013-04-05 21:38:00,54.0,39.5,29.83,ESE,112,9.2,10.4,58,0.00,CLR,,0.00,WeatherDisplay:10.37,2013-04-06 02:38:00,
2013-04-05 21:45:00,54.0,39.5,29.83,SE,135,12.7,13.0,58,0.00,CLR,,0.00,WeatherDisplay:10.37,2013-04-06 02:45:00,
2013-04-05 21:50:00,54.0,39.5,29.83,SE,135,12.7,13.3,58,0.00,CLR,,0.00,WeatherDisplay:10.37,2013-04-06 02:50:00,
2013-04-05 21:55:00,54.0,39.5,29.82,ESE,112,9.2,9.8,58,0.00,CLR,,0.00,WeatherDisplay:10.37,2013-04-06 02:55:00,
2013-04-05 22:00:00,54.0,39.5,29.82,ESE,112,11.5,11.5,58,0.00,CLR,,0.00,WeatherDisplay:10.37,2013-04-06 03:00:00,
2013-04-05 22:05:00,54.0,39.5,29.82,ESE,112,12.7,13.3,58,0.00,CLR,,0.00,WeatherDisplay:10.37,2013-04-06 03:05:00,
2013-04-05 22:10:00,54.0,39.5,29.82,SE,135,12.2,12.2,58,0.00,CLR,,0.00,WeatherDisplay:10.37,2013-04-06 03:10:00,
2013-04-05 22:15:00,54.0,39.5,29.81,SE,135,10.4,10.4,58,0.00,CLR,,0.00,WeatherDisplay:10.37,2013-04-06 03:15:00,
2013-04-05 22:21:00,53.8,39.3,29.81,SE,135,10.4,10.7,58,0.00,CLR,,0.00,WeatherDisplay:10.37,2013-04-06 03:21:00,
2013-04-05 22:26:00,53.8,39.8,29.81,SSE,158,11.5,11.5,59,0.00,CLR,,0.00,WeatherDisplay:10.37,2013-04-06 03:26:00,
2013-04-05 22:31:00,53.6,39.6,29.81,SE,135,11.9,12.7,59,0.00,CLR,,0.00,WeatherDisplay:10.37,2013-04-06 03:31:00,
2013-04-05 22:36:00,53.4,39.4,29.81,SE,135,11.9,11.9,59,0.00,CLR,,0.00,WeatherDisplay:10.37,2013-04-06 03:36:00,
2013-04-05 22:41:00,53.2,39.3,29.81,SE,135,12.7,14.1,59,0.00,CLR,,0.00,WeatherDisplay:10.37,2013-04-06 03:41:00,
2013-04-05 22:47:00,53.2,39.7,29.81,SE,135,11.5,12.0,60,0.00,CLR,,0.00,WeatherDisplay:10.37,2013-04-06 03:47:00,
2013-04-05 22:52:00,53.2,39.7,29.81,SE,135,10.8,11.6,60,0.00,CLR,,0.00,WeatherDisplay:10.37,2013-04-06 03:52:00,
2013-04-05 22:57:00,53.2,39.7,29.79,SE,135,15.0,15.6,60,0.00,CLR,,0.00,WeatherDisplay:10.37,2013-04-06 03:57:00,
2013-04-05 23:00:00,53.2,39.7,29.79,SE,135,10.5,11.1,60,0.00,CLR,,0.00,WeatherDisplay:10.37,2013-04-06 04:00:00,
2013-04-05 23:01:00,53.2,39.7,29.79,SE,135,10.5,11.3,60,0.00,CLR,,0.00,WeatherDisplay:10.37,2013-04-06 04:01:00,
2013-04-05 23:07:00,53.1,39.5,29.79,SE,135,8.1,8.4,60,0.00,CLR,,0.00,WeatherDisplay:10.37,2013-04-06 04:07:00,
2013-04-05 23:12:00,53.1,39.5,29.79,SE,135,8.4,9.0,60,0.00,CLR,,0.00,WeatherDisplay:10.37,2013-04-06 04:12:00,
2013-04-05 23:17:00,52.7,39.6,29.79,SSE,158,8.1,8.7,61,0.00,CLR,,0.00,WeatherDisplay:10.37,2013-04-06 04:17:00,
2013-04-05 23:22:00,52.7,39.6,29.79,SE,135,9.2,9.6,61,0.00,CLR,,0.00,WeatherDisplay:10.37,2013-04-06 04:22:00,
2013-04-05 23:27:00,52.7,39.6,29.79,ESE,112,7.0,7.5,61,0.00,CLR,,0.00,WeatherDisplay:10.37,2013-04-06 04:27:00,
2013-04-05 23:32:00,52.7,40.5,29.78,SE,135,11.5,11.5,63,0.00,CLR,,0.00,WeatherDisplay:10.37,2013-04-06 04:32:00,
2013-04-05 23:37:00,52.7,40.5,29.77,SE,135,8.4,9.0,63,0.00,CLR,,0.00,WeatherDisplay:10.37,2013-04-06 04:37:00,
2013-04-05 23:42:00,52.7,40.5,29.78,SSE,158,9.2,9.3,63,0.00,CLR,,0.00,WeatherDisplay:10.37,2013-04-06 04:42:00,
2013-04-05 23:47:00,52.7,40.5,29.78,SE,135,10.4,10.4,63,0.00,CLR,,0.00,WeatherDisplay:10.37,2013-04-06 04:47:00,
2013-04-05 23:52:00,52.7,40.5,29.78,SE,135,9.2,9.5,63,0.00,CLR,,0.00,WeatherDisplay:10.37,2013-04-06 04:52:00,
2013-04-05 23:57:00,52.7,40.5,29.78,SE,135,8.1,8.5,63,0.00,CLR,,0.00,WeatherDisplay:10.37,2013-04-06 04:57:00,